USA 568

Last updated on Thu Dec 11 2025 00:02:07 GMT+0000 (Coordinated Universal Time)

1 66551U 24134K 25336.66670139 -.01709685 00000+0 -74303-2 0 9990 2 66551 53.1571 236.7807 0000717 110.7411 313.9012 15.87051116 2624
UTC large
Height (km)
Speed (km/s)
/
Latitude / Longitude
Inclination (degrees)
Orbital Period (minutes)
Azimuth
Elevation
Range (km)
Doppler Factor

Next 0 passes for location: London (51.5072 / 0.1276)

Sorry there are no passes over London.